Location: ??????????
(54.8537°N, 38.8755°E)
Time: 21:45:16
(UTC+00:00)

Tiros 1 despin weight - Pass Details

Date: 19 September 2024
Orbit: 572 x 613 km, 48.2° (Epoch: 13 October)

Event Time Altitude Azimuth Distance (km) Brightness Sun altitude
Exits shadow 01:14:31 25° 213° (SSW) 1,239 ? -16.1°
Maximum altitude 01:16:14 34° 172° (S) 1,017 ? -15.8°
Drops below altitude 10° 01:20:20 10° 108° (ESE) 1,978 ? -15.3°
Sets 01:22:48 0° 99° (E) 2,884 ? -15.0°
